When you browse on this site, cookies collect data to enhance your experience and personalize the content and advertising you see.
Visit our Privacy Policy to learn more. By continuing to use the site, you agree to this use of cookies and data.
  • In Austria
  • List of Countries
  • For 7 days
  • Water Temperature
  • Satellite Maps
  • Weather Map
  • News
  • Weather Widgets
  • user-avatar
    Login

    Hourly Weather Zaafrana

    Today, 19 November, Monday

    Time Temperature Precipitation Wind Pressure Humidity
    00:00 +18°C° 0 mm 1 mps 746 mmHg 49%
    01:00 +18°C° 0 mm 1 mps 746 mmHg 48%
    02:00 +16°C° 0 mm 1 mps 746 mmHg 44%
    03:00 +16°C° 0 mm 1 mps 746 mmHg 43%
    04:00 +16°C° 0 mm 2 mps 746 mmHg 42%
    05:00 +16°C° 0 mm 2 mps 746 mmHg 40%
    06:00 +17°C° 0 mm 2 mps 746 mmHg 38%
    07:00 +18°C° 0 mm 2 mps 747 mmHg 35%
    08:00 +20°C° 0 mm 2 mps 747 mmHg 32%
    09:00 +21°C° 0 mm 2 mps 747 mmHg 30%
    10:00 +24°C° 0 mm 2 mps 747 mmHg 28%
    11:00 +25°C° 0 mm 2 mps 748 mmHg 25%
    12:00 +26°C° 0 mm 3 mps 747 mmHg 25%
    13:00 +26°C° 0 mm 3 mps 747 mmHg 24%
    14:00 +27°C° 0 mm 3 mps 747 mmHg 24%
    15:00 +26°C° 0 mm 3 mps 747 mmHg 29%
    16:00 +24°C° 0 mm 3 mps 747 mmHg 34%
    17:00 +22°C° 0 mm 3 mps 747 mmHg 39%
    18:00 +21°C° 0 mm 3 mps 748 mmHg 43%
    19:00 +21°C° 0 mm 2 mps 748 mmHg 47%
    20:00 +20°C° 0 mm 2 mps 748 mmHg 51%
    21:00 +19°C° 0 mm 2 mps 748 mmHg 54%
    22:00 +19°C° 0 mm 2 mps 748 mmHg 56%
    23:00 +19°C° 0 mm 2 mps 749 mmHg 59%

    Tomorrow, 20 November, Tuesday

    Time Temperature Precipitation Wind Pressure Humidity
    00:00 +18°C° 0 mm 2 mps 749 mmHg 61%
    01:00 +18°C° 0 mm 2 mps 749 mmHg 63%
    02:00 +17°C° 0 mm 2 mps 749 mmHg 64%
    03:00 +17°C° 0 mm 2 mps 749 mmHg 66%
    04:00 +17°C° 0 mm 2 mps 749 mmHg 67%
    05:00 +17°C° 0 mm 2 mps 749 mmHg 68%
    06:00 +18°C° 0 mm 2 mps 749 mmHg 63%
    07:00 +19°C° 0 mm 3 mps 750 mmHg 59%
    08:00 +20°C° 0 mm 3 mps 750 mmHg 54%
    09:00 +22°C° 0 mm 3 mps 750 mmHg 46%
    10:00 +25°C° 0 mm 3 mps 750 mmHg 37%
    11:00 +27°C° 0 mm 3 mps 750 mmHg 29%
    12:00 +27°C° 0 mm 3 mps 750 mmHg 26%
    13:00 +28°C° 0 mm 3 mps 749 mmHg 24%
    14:00 +28°C° 0 mm 4 mps 748 mmHg 21%
    15:00 +27°C° 0 mm 3 mps 748 mmHg 25%
    16:00 +25°C° 0 mm 3 mps 748 mmHg 28%
    17:00 +24°C° 0 mm 3 mps 748 mmHg 32%
    18:00 +22°C° 0 mm 3 mps 748 mmHg 34%
    19:00 +21°C° 0 mm 3 mps 749 mmHg 37%
    20:00 +20°C° 0 mm 3 mps 749 mmHg 40%
    21:00 +20°C° 0 mm 3 mps 749 mmHg 43%
    22:00 +20°C° 0 mm 2 mps 749 mmHg 46%
    23:00 +19°C° 0 mm 2 mps 749 mmHg 50%

    Day after tomorrow, 21 November, Wednesday

    Time Temperature Precipitation Wind Pressure Humidity
    00:00 +19°C° 0 mm 2 mps 749 mmHg 53%
    01:00 +18°C° 0 mm 2 mps 748 mmHg 56%
    02:00 +18°C° 0 mm 2 mps 748 mmHg 59%
    03:00 +17°C° 0 mm 2 mps 748 mmHg 61%
    04:00 +17°C° 0 mm 2 mps 747 mmHg 63%
    05:00 +16°C° 0 mm 1 mps 747 mmHg 65%
    06:00 +19°C° 0 mm 1 mps 747 mmHg 59%
    07:00 +20°C° 0 mm 1 mps 748 mmHg 53%
    08:00 +22°C° 0 mm 1 mps 748 mmHg 47%
    09:00 +24°C° 0 mm 1 mps 748 mmHg 40%
    10:00 +25°C° 0 mm 1 mps 748 mmHg 33%
    11:00 +27°C° 0 mm 2 mps 748 mmHg 26%
    12:00 +28°C° 0 mm 2 mps 747 mmHg 24%
    13:00 +28°C° 0 mm 2 mps 747 mmHg 22%
    14:00 +29°C° 0 mm 2 mps 746 mmHg 20%
    15:00 +27°C° 0 mm 2 mps 746 mmHg 23%
    16:00 +26°C° 0 mm 3 mps 746 mmHg 26%
    17:00 +25°C° 0 mm 3 mps 746 mmHg 29%
    18:00 +24°C° 0 mm 3 mps 747 mmHg 32%
    19:00 +23°C° 0 mm 2 mps 747 mmHg 35%
    20:00 +23°C° 0 mm 2 mps 747 mmHg 38%
    21:00 +21°C° 0 mm 2 mps 747 mmHg 40%
    22:00 +20°C° 0 mm 2 mps 747 mmHg 42%
    23:00 +20°C° 0 mm 2 mps 747 mmHg 44%

    22 November, Thursday

    Time Temperature Precipitation Wind Pressure Humidity
    00:00 +21°C° 0 mm 1 mps 746 mmHg 44%
    01:00 +20°C° 0 mm 1 mps 746 mmHg 43%
    02:00 +20°C° 0 mm 1 mps 745 mmHg 43%
    03:00 +21°C° 0 mm 1 mps 746 mmHg 41%
    04:00 +21°C° 0 mm 1 mps 746 mmHg 38%
    05:00 +21°C° 0 mm 1 mps 746 mmHg 35%
    06:00 +22°C° 0 mm 1 mps 746 mmHg 34%
    07:00 +21°C° 0 mm 2 mps 746 mmHg 33%
    08:00 +23°C° 0 mm 2 mps 747 mmHg 32%
    09:00 +24°C° 0 mm 1 mps 746 mmHg 31%
    10:00 +25°C° 0 mm 1 mps 746 mmHg 30%
    11:00 +25°C° 0 mm 0 mps 746 mmHg 30%
    12:00 +27°C° 0 mm 1 mps 745 mmHg 28%
    13:00 +28°C° 0 mm 2 mps 745 mmHg 26%
    14:00 +28°C° 0 mm 2 mps 744 mmHg 24%
    15:00 +27°C° 0 mm 2 mps 744 mmHg 26%
    16:00 +26°C° 0 mm 2 mps 744 mmHg 27%
    17:00 +24°C° 0 mm 2 mps 744 mmHg 29%
    18:00 +24°C° 0 mm 2 mps 745 mmHg 31%
    19:00 +23°C° 0 mm 2 mps 745 mmHg 33%
    20:00 +21°C° 0 mm 2 mps 746 mmHg 35%
    21:00 +21°C° 0 mm 3 mps 746 mmHg 43%
    22:00 +20°C° 0 mm 3 mps 746 mmHg 52%
    23:00 +19°C° 0 mm 3 mps 746 mmHg 60%

    23 November, Friday

    Time Temperature Precipitation Wind Pressure Humidity
    00:00 +19°C° 0 mm 3 mps 746 mmHg 65%
    01:00 +18°C° 0 mm 3 mps 746 mmHg 71%
    02:00 +18°C° 0 mm 3 mps 745 mmHg 76%
    03:00 +17°C° 0 mm 2 mps 745 mmHg 79%
    04:00 +17°C° 0 mm 2 mps 746 mmHg 82%
    05:00 +16°C° 0 mm 2 mps 746 mmHg 85%
    06:00 +17°C° 0 mm 2 mps 746 mmHg 82%
    07:00 +18°C° 0 mm 2 mps 746 mmHg 80%
    08:00 +18°C° 0 mm 3 mps 747 mmHg 77%
    09:00 +19°C° 0 mm 3 mps 747 mmHg 69%
    10:00 +20°C° 0 mm 3 mps 747 mmHg 61%
    11:00 +22°C° 0 mm 3 mps 747 mmHg 53%
    12:00 +22°C° 0 mm 3 mps 746 mmHg 51%
    13:00 +22°C° 0 mm 3 mps 746 mmHg 50%
    14:00 +23°C° 0 mm 4 mps 745 mmHg 48%
    15:00 +22°C° 0 mm 3 mps 745 mmHg 50%
    16:00 +22°C° 0 mm 3 mps 745 mmHg 53%
    17:00 +21°C° 0 mm 3 mps 745 mmHg 56%
    18:00 +20°C° 0 mm 3 mps 746 mmHg 59%
    19:00 +20°C° 0 mm 3 mps 746 mmHg 62%
    20:00 +19°C° 0 mm 3 mps 747 mmHg 66%
    21:00 +19°C° 0 mm 3 mps 746 mmHg 68%
    22:00 +18°C° 0 mm 3 mps 746 mmHg 71%
    23:00 +18°C° 0 mm 3 mps 746 mmHg 74%

    24 November, Saturday

    Time Temperature Precipitation Wind Pressure Humidity
    00:00 +17°C° 0 mm 3 mps 746 mmHg 76%
    01:00 +17°C° 0 mm 3 mps 746 mmHg 78%
    02:00 +16°C° 0 mm 3 mps 746 mmHg 80%
    03:00 +16°C° 0 mm 3 mps 746 mmHg 82%
    04:00 +14°C° 0 mm 3 mps 746 mmHg 83%
    05:00 +14°C° 0 mm 3 mps 746 mmHg 85%
    06:00 +16°C° 0.1 mm 3 mps 746 mmHg 82%
    07:00 +16°C° 0.1 mm 3 mps 747 mmHg 79%
    08:00 +15°C° 0.1 mm 4 mps 747 mmHg 75%
    09:00 +17°C° 0 mm 4 mps 747 mmHg 68%
    10:00 +19°C° 0 mm 5 mps 747 mmHg 61%
    11:00 +20°C° 0 mm 5 mps 747 mmHg 54%
    12:00 +20°C° 0 mm 6 mps 746 mmHg 52%
    13:00 +20°C° 0 mm 6 mps 746 mmHg 50%
    14:00 +21°C° 0 mm 7 mps 745 mmHg 47%
    15:00 +20°C° 0 mm 6 mps 745 mmHg 50%
    16:00 +20°C° 0 mm 6 mps 745 mmHg 53%
    17:00 +19°C° 0 mm 5 mps 746 mmHg 55%
    18:00 +19°C° 0.1 mm 5 mps 746 mmHg 59%
    19:00 +18°C° 0.1 mm 4 mps 746 mmHg 63%
    20:00 +17°C° 0.1 mm 4 mps 746 mmHg 68%
    21:00 +17°C° 0.1 mm 4 mps 746 mmHg 71%
    22:00 +17°C° 0.1 mm 4 mps 746 mmHg 75%
    23:00 +15°C° 0.1 mm 4 mps 746 mmHg 78%
    Show more